Regional Weather Roundup
Issued by NWS

Home | Current Version | Previous Version | Graphics & Text | Print | Product List | Glossary On
Versions: 1 2 3 4 5 6 7 8 9 10 11 12 13 14 15 16 17 18 19 20 21 22 23 24 25 26 27 28 29 30 31 32 33 34 35 36 37 38 39 40 41 42 43 44 45 46 47 48 49 50
000
ASUS43 KIND 251759
RWRIN

WEATHER ROUNDUP FOR INDIANA
NATIONAL WEATHER SERVICE INDIANAPOLIS IN
200 PM EDT SAT MAR 25 2017

NOTE: "FAIR" INDICATES FEW OR NO CLOUDS BELOW 12,000 FEET WITH NO
SIGNIFICANT WEATHER AND/OR OBSTRUCTIONS TO VISIBILITY.

* - STATION DOES NOT REPORT WEATHER SUCH AS PRECIPITATION OR FOG.

+ - STATION NOT QUALITY CONTROLLED BY THE NATIONAL WEATHER SERVICE.
    USE DATA WITH CAUTION...ESPECIALLY DEWPOINT AND RELATIVE
    HUMIDITY OBSERVATIONS.

INZ001>003-010>013-019-020-251900-
NORTHWEST INDIANA

CITY           SKY/WX    TMP DP  RH WIND       PRES   REMARKS
GARY /AIRPORT/ CLOUDY    46  46 100 N6        30.02F FOG
MONTICELLO +   FAIR      68  51  54 S8        29.98F
6HR MIN TEMP:  52; 6HR MAX TEMP:  71;


$$

LMZ046-743>745-251900-
SOUTHERN LAKE MICHIGAN

STATION/POSITION TIME  TEMP    WIND        PRES    WAVE
                       AIR SEA DIR/SP/G            HT
                 (UTC) (F)     (DEG/KT/KT) (MB)    (FT)
BURNS HARBOR     1740   41     260/  4/  4 1016.9S
MICHIGAN CITY    1730   56      90/ 10/ 11   N/A

$$

INZ004-005-014>016-021>024-251900-
NORTH CENTRAL INDIANA

CITY           SKY/WX    TMP DP  RH WIND       PRES   REMARKS
ELKHART        SUNNY     55  48  76 E14       30.06F
GOSHEN         FAIR      63  51  65 E14       30.05F
6HR MIN TEMP:  51; 6HR MAX TEMP:  64; 6HR PCP:  0.01;

SOUTH BEND     FAIR      57  51  80 E13       30.06S
6HR MIN TEMP:  47; 6HR MAX TEMP:  57; 6HR PCP:  0.25;


$$

INZ006>009-017-018-025>027-251900-
NORTHEAST INDIANA

CITY           SKY/WX    TMP DP  RH WIND       PRES   REMARKS
ANGOLA *+      MOSUNNY   57  48  72 E14       30.09F
FORT WAYNE     CLOUDY    71  53  52 S7G17     30.06S
6HR MIN TEMP:  55; 6HR MAX TEMP:  74;

KENDALLVILLE + FAIR      60  49  68 E15       30.08F

$$

INZ028-029-035-036-043>045-051>053-251900-
WEST CENTRAL INDIANA

CITY           SKY/WX    TMP DP  RH WIND       PRES   REMARKS
CRAWFORDSVL +  CLOUDY    69  53  55 S13       29.98F
6HR MIN TEMP:  57; 6HR MAX TEMP:  70;

GREENCASTLE +  FAIR      70  52  52 S13       29.99F
LAFAYETTE      FAIR      71  52  50 S17G30    29.98R
6HR MIN TEMP:  60; 6HR MAX TEMP:  72;

TERRE HAUTE    CLOUDY    69  52  54 S17G26    29.97F
6HR MIN TEMP:  63; 6HR MAX TEMP:  70;


$$

INZ030>032-037>040-046>048-054>057-064-065-251900-
CENTRAL INDIANA

CITY           SKY/WX    TMP DP  RH WIND       PRES   REMARKS
CP ATTERBURY + FAIR      73  52  46 SE17G24   30.01F HAZE
INDIANAPOLIS   PTSUNNY   74  54  49 S16       29.98F
6HR MIN TEMP:  60; 6HR MAX TEMP:  74;

-EAGLE CREEK   FAIR      73  53  49 S10       29.99F
6HR MIN TEMP:  61; 6HR MAX TEMP:  73;

KOKOMO +       FAIR      71  54  54 S16G24    30.02F
6HR MIN TEMP:  58; 6HR MAX TEMP:  71;

SHELBYVILLE    FAIR      72  51  47 S17G29    30.02F
6HR MIN TEMP:  61; 6HR MAX TEMP:  73;


$$

INZ033-034-041-042-049-050-058-059-251900-
EAST CENTRAL INDIANA

CITY           SKY/WX    TMP DP  RH WIND       PRES   REMARKS
MUNCIE         FAIR      73  52  47 S16G24    30.04F
6HR MIN TEMP:  63; 6HR MAX TEMP:  73;

RICHMOND +     FAIR      70  52  52 S13G21    30.09F

$$

INZ060-061-067>069-081>083-085>088-251900-
SOUTHWEST INDIANA

CITY           SKY/WX    TMP DP  RH WIND       PRES   REMARKS
EVANSVILLE     PTSUNNY   74  52  46 S20G26    29.96F
6HR MIN TEMP:  62; 6HR MAX TEMP:  75; 6HR PCP: TRACE;

HUNTINGBURG *+ CLOUDY    73  53  49 S23G32    29.99S
6HR MIN TEMP:  64; 6HR MAX TEMP:  74;


$$

INZ062-063-066-070>080-084-089>092-251900-
SOUTH CENTRAL AND SOUTHEAST INDIANA

CITY           SKY/WX    TMP DP  RH WIND       PRES   REMARKS
BLOOMINGTON    FAIR      74  51  44 SE16G25   29.98F
6HR MIN TEMP:  60; 6HR MAX TEMP:  75;

MADISON *+     FAIR      73  46  38 S13G20    30.07F
SEYMOUR +      PTSUNNY   75  54  46 SE16      30.02F

$$





USA.gov is the U.S. government's official web portal to all federal, state and local government web resources and services.